sat.trackr.live / text

‹ back to catalog

ONEWEB-0511

NORAD 54129 · 2022-138S

PAYLOAD ACTIVE UNKNOWN

§ Identity

Operator
Country
UK
Launch date
2022-10-22
Launch site
SRILR
Launch vehicle
Mass (kg)
RCS (m²)

Purposes: comms

External: N2YO · Heavens-Above · Gunter

§ Orbital elements

Epoch: 2026-09-20T00:16:24.528000Z

Period
109.11 min
Inclination
87.9107°
Eccentricity
0.0002201
Mean motion
13.19723944 rev/d
Perigee alt
1,184.1 km
Apogee alt
1,187.4 km
Semi-major
7,563.9 km
B*
1.4117e-4
RAAN
286.0764°
Arg perigee
90.8338°
Mean anomaly
269.3047°
Rev number
18,934

§ Raw data

ONEWEB-05111 54129U 22138S   26263.01139500  .00000069  00000+0  14117-3 0  99962 54129  87.9107 286.0764 0002201  90.8338 269.3047 13.19723944189343

JSON: /api/v1/satellites/54129 · /tle

For live sub-satellite position, see the globe view (requires WebGL).

§ Visibility from observer

Set your observer location to see the next 7 days of passes ≥ 10°. The values pass through the URL so the page stays shareable.

No JS? Fill the form by hand. The geolocation button needs JavaScript.